N2WH Weather Reports


time (UTC)temp
C
wind
direction
speed
KPH
gust
KPH
rain 1hr
cm
rain 24hr
cm
rain mn
cm
humidity
%
barometer
mb
20260510131023 12 135 0.0 0.0 0.00 0.03 0.03 99 1014.1
20260510130519 12 149 0.0 1.6 0.00 0.03 0.03 99 1014.2
20260510130017 12 149 0.0 0.0 0.00 0.03 0.03 99 1014.1
20260510125514 11 139 0.0 0.0 0.00 0.03 0.03 99 1014.2
20260510125010 12 150 1.6 1.6 0.00 0.03 0.03 99 1013.6
20260510124506 12 139 0.0 0.0 0.00 0.03 0.03 99 1013.8
20260510124004 11 122 0.0 0.0 0.00 0.03 0.03 99 1013.7
20260510123459 11 130 0.0 0.0 0.00 0.03 0.03 99 1013.6
20260510122955 11 150 0.0 0.0 0.00 0.03 0.03 99 1013.8
20260510122450 11 141 0.0 0.0 0.00 0.03 0.03 99 1013.7
20260510121947 11 137 0.0 0.0 0.00 0.03 0.03 99 1013.8
20260510121444 11 154 0.0 0.0 0.00 0.03 0.03 99 1013.6
20260510120942 11 139 0.0 0.0 0.00 0.03 0.03 99 1013.6
20260510120439 11 156 0.0 0.0 0.00 0.03 0.03 99 1013.6
20260510115934 11 137 0.0 0.0 0.00 0.03 0.03 99 1013.5
20260510115432 10 138 0.0 0.0 0.00 0.03 0.03 99 1013.4
20260510114927 10 128 0.0 0.0 0.00 0.03 0.03 99 1013.1
20260510114425 10 131 0.0 0.0 0.00 0.03 0.03 99 1012.9
20260510113920 10 139 0.0 0.0 0.00 0.03 0.03 99 1013.2
20260510113416 10 135 0.0 0.0 0.00 0.03 0.03 99 1013.3
20260510112914 10 141 0.0 0.0 0.00 0.03 0.03 99 1013.2
20260510112411 10 138 0.0 0.0 0.00 0.03 0.03 99 1013.2
20260510111907 10 131 0.0 0.0 0.00 0.03 0.03 99 1013.3
20260510111403 10 140 0.0 0.0 0.00 0.03 0.03 99 1013.2
20260510110858 10 138 0.0 0.0 0.00 0.03 0.03 99 1012.9
20260510110355 10 138 0.0 0.0 0.00 0.03 0.03 99 1013.0
20260510105851 10 135 0.0 0.0 0.00 0.03 0.03 99 1013.1
20260510105351 10 131 0.0 0.0 0.18 0.03 0.03 99 1012.9
20260510104847 10 139 0.0 0.0 0.18 0.03 0.03 99 1013.2
20260510104344 10 134 0.0 0.0 0.00 0.00 0.00 99 1012.8
20260510103840 10 134 0.0 0.0 0.00 0.00 0.00 99 1012.8
20260510103338 10 133 0.0 0.0 0.00 0.00 0.00 99 1012.5
20260510102833 10 138 0.0 0.0 0.00 0.00 0.00 99 1012.7
20260510102329 10 129 0.0 0.0 0.00 0.00 0.00 99 1012.6
20260510101826 10 133 0.0 0.0 0.00 0.00 0.00 99 1012.6
20260510101325 10 133 0.0 0.0 0.00 0.00 0.00 99 1012.8
20260510100820 10 137 0.0 0.0 0.00 0.00 0.00 99 1012.8
20260510100318 10 139 0.0 0.0 0.00 0.00 0.00 99 1012.7
20260510095814 10 134 0.0 0.0 0.00 0.00 0.00 99 1012.7
20260510095308 10 136 0.0 0.0 0.00 0.00 0.00 99 1013.0
20260510094803 10 133 0.0 0.0 0.00 0.00 0.00 99 1012.9
20260510094258 10 137 0.0 0.0 0.00 0.00 0.00 99 1012.6
20260510093754 10 137 0.0 0.0 0.00 0.00 0.00 99 1012.7
20260510093251 10 135 0.0 0.0 0.00 0.00 0.00 99 1012.6
20260510092747 10 137 0.0 0.0 0.00 0.00 0.00 99 1012.6
20260510092243 10 136 0.0 0.0 0.00 0.00 0.00 99 1012.8
20260510091739 10 129 0.0 0.0 0.00 0.00 0.00 99 1012.6
20260510091237 10 133 0.0 0.0 0.00 0.00 0.00 99 1012.5
20260510090732 10 132 0.0 0.0 0.00 0.00 0.00 99 1012.7
20260510090230 10 137 0.0 0.0 0.00 0.00 0.00 99 1012.8
20260510085725 10 134 0.0 0.0 0.00 0.00 0.00 99 1012.9
20260510085220 10 137 0.0 0.0 0.00 0.00 0.00 99 1013.1
20260510084716 10 141 0.0 0.0 0.00 0.00 0.00 99 1013.0
20260510084213 9 137 0.0 0.0 0.00 0.00 0.00 99 1013.1
20260510083710 9 137 0.0 0.0 0.00 0.00 0.00 99 1013.0
20260510083207 9 134 0.0 0.0 0.00 0.00 0.00 99 1013.2
20260510082702 9 141 0.0 0.0 0.00 0.00 0.00 99 1013.2
20260510082159 9 140 0.0 0.0 0.00 0.00 0.00 99 1013.1
20260510081653 9 138 0.0 0.0 0.00 0.00 0.00 99 1013.3
20260510081149 9 138 0.0 0.0 0.00 0.00 0.00 99 1013.0
20260510080649 9 137 0.0 0.0 0.00 0.00 0.00 99 1012.9
20260510080146 9 138 0.0 0.0 0.00 0.00 0.00 99 1012.5
20260510075643 10 138 1.6 1.6 0.00 0.00 0.00 99 1013.0
20260510075140 10 146 0.0 0.0 0.00 0.00 0.00 99 1012.9
20260510074637 10 131 0.0 0.0 0.00 0.00 0.00 99 1012.6
20260510074133 10 135 0.0 0.0 0.00 0.00 0.00 99 1012.4
20260510073629 10 131 0.0 0.0 0.00 0.00 0.00 99 1012.2
20260510073126 10 116 0.0 0.0 0.00 0.00 0.00 99 1012.2
20260510072622 10 129 0.0 0.0 0.00 0.00 0.00 99 1012.2
20260510072119 10 129 0.0 0.0 0.00 0.00 0.00 99 1012.1
20260510071614 10 116 0.0 1.6 0.00 0.00 0.00 99 1012.2
20260510071112 10 113 0.0 0.0 0.00 0.00 0.00 99 1012.2
20260510070609 10 130 0.0 0.0 0.00 0.00 0.00 99 1012.1
20260510070107 10 114 0.0 1.6 0.00 0.00 0.00 99 1012.3
20260510065603 10 124 0.0 0.0 0.00 0.00 0.00 99 1012.5
20260510065059 10 124 0.0 0.0 0.00 0.00 0.00 99 1012.2
20260510064555 10 139 0.0 0.0 0.00 0.00 0.00 99 1012.4
20260510064052 10 120 0.0 1.6 0.00 0.00 0.00 99 1012.3
20260510063549 10 137 0.0 0.0 0.00 0.00 0.00 99 1012.2
20260510063046 10 137 0.0 0.0 0.00 0.00 0.00 99 1012.3
20260510062542 10 139 0.0 0.0 0.00 0.00 0.00 99 1012.5
20260510062037 10 141 0.0 0.0 0.00 0.00 0.00 99 1012.4
20260510061534 10 139 0.0 0.0 0.00 0.00 0.00 99 1012.3
20260510061031 10 139 0.0 0.0 0.00 0.00 0.00 99 1012.3
20260510060527 10 137 0.0 0.0 0.00 0.00 0.00 99 1012.2
20260510060023 10 137 0.0 0.0 0.00 0.00 0.00 99 1012.1
20260510055519 10 137 0.0 0.0 0.00 0.00 0.00 99 1012.4
20260510055018 10 137 0.0 0.0 0.00 0.00 0.00 99 1012.3
20260510054513 10 137 0.0 0.0 0.00 0.00 0.00 99 1012.1
20260510054009 10 137 0.0 0.0 0.00 0.00 0.00 99 1012.1
20260510053503 10 137 0.0 0.0 0.00 0.00 0.00 99 1012.3
20260510053000 10 137 0.0 0.0 0.00 0.00 0.00 99 1012.1
20260510052456 10 137 0.0 0.0 0.00 0.00 0.00 99 1012.0
20260510051953 10 132 0.0 0.0 0.00 0.00 0.00 99 1012.2
20260510051448 10 137 0.0 0.0 0.00 0.00 0.00 99 1012.2
20260510050944 10 141 0.0 0.0 0.00 0.00 0.00 99 1012.2
20260510050442 10 137 0.0 0.0 0.00 0.00 0.00 99 1012.0
20260510045939 10 137 0.0 0.0 0.00 0.00 0.00 99 1012.3
20260510045436 10 137 0.0 0.0 0.00 0.00 0.00 99 1012.2
20260510044933 10 137 0.0 0.0 0.00 0.00 0.00 99 1012.3
20260510044430 10 129 0.0 0.0 0.00 0.00 0.00 99 1012.3
20260510043926 10 135 0.0 0.0 0.00 0.00 0.00 99 1012.5
20260510043422 10 132 0.0 0.0 0.00 0.00 0.00 99 1012.3
20260510042921 10 135 0.0 0.0 0.00 0.00 0.00 99 1012.5
20260510042416 10 135 0.0 0.0 0.00 0.00 0.00 99 1012.4
20260510041912 10 132 0.0 0.0 0.00 0.00 0.00 99 1012.5
20260510041409 10 132 0.0 0.0 0.00 0.00 0.00 99 1012.4
20260510040907 10 132 0.0 0.0 0.00 0.00 0.00 99 1012.3
20260510040404 10 132 0.0 0.0 0.00 0.00 0.00 99 1012.3
20260510035859 10 134 0.0 0.0 0.00 0.97 0.97 99 1012.2
20260510035356 10 145 0.0 0.0 0.00 0.97 0.97 99 1012.5
20260510034851 10 145 0.0 0.0 0.00 0.97 0.97 99 1012.3
20260510034349 10 140 0.0 0.0 0.00 0.97 0.97 99 1012.3
20260510033845 10 138 0.0 0.0 0.00 0.97 0.97 99 1012.0
20260510033342 10 138 0.0 0.0 0.00 0.97 0.97 99 1011.8
20260510032839 10 131 0.0 0.0 0.00 0.97 0.97 99 1012.1
20260510032336 10 143 0.0 0.0 0.00 0.97 0.97 99 1012.2
20260510031831 10 143 0.0 0.0 0.00 0.97 0.97 99 1012.1
20260510031327 10 137 0.0 0.0 0.00 0.97 0.97 99 1012.1
20260510030821 10 134 0.0 0.0 0.00 0.97 0.97 99 1012.0
20260510030318 10 140 0.0 0.0 0.00 0.97 0.97 99 1012.0
20260510025815 10 140 0.0 0.0 0.00 0.97 0.97 99 1012.0
20260510025312 10 130 0.0 0.0 0.00 0.97 0.97 99 1012.0
20260510024809 10 125 0.0 0.0 0.00 0.97 0.97 99 1011.9
20260510024306 10 129 0.0 0.0 0.00 0.97 0.97 99 1011.9
20260510023802 10 130 0.0 0.0 0.00 0.97 0.97 99 1012.1
20260510023259 10 131 0.0 0.0 0.00 0.97 0.97 99 1011.8
20260510022756 10 134 0.0 0.0 0.00 0.97 0.97 99 1011.9
20260510022255 10 134 0.0 0.0 0.00 0.97 0.97 99 1012.1
20260510021754 10 135 0.0 0.0 0.00 0.97 0.97 99 1012.1
20260510021253 10 139 0.0 0.0 0.00 0.97 0.97 99 1012.1
20260510020748 10 139 0.0 0.0 0.00 0.97 0.97 99 1012.2
20260510020243 11 138 0.0 0.0 0.00 0.97 0.97 99 1012.0
20260510015739 11 139 0.0 0.0 0.00 0.97 0.97 99 1012.1
20260510015236 11 139 0.0 0.0 0.00 0.97 0.97 99 1012.1
20260510014736 11 139 0.0 0.0 0.00 0.97 0.97 99 1012.1
20260510014233 11 134 0.0 0.0 0.00 0.97 0.97 99 1012.1
20260510013729 11 134 0.0 0.0 0.00 0.97 0.97 99 1012.1
20260510013219 10 134 0.0 0.0 0.00 0.97 0.97 99 1012.2
20260510012719 10 134 0.0 0.0 0.00 0.97 0.97 99 1012.1
20260510012214 10 134 0.0 0.0 0.00 0.97 0.97 99 1012.1
20260510011709 10 133 0.0 0.0 0.00 0.97 0.97 99 1012.1
20260510011205 10 129 0.0 0.0 0.00 0.97 0.97 99 1012.1
20260510010702 10 138 0.0 0.0 0.00 0.97 0.97 99 1012.0
20260510010158 10 137 0.0 0.0 0.00 0.97 0.97 99 1011.7
20260510005655 10 134 0.0 0.0 0.00 0.97 0.97 99 1011.6
20260510005152 10 133 0.0 0.0 0.00 0.97 0.97 99 1011.7
20260510004650 10 133 0.0 0.0 0.00 0.97 0.97 99 1011.7
20260510004148 11 133 0.0 0.0 0.00 0.97 0.97 99 1011.4
20260510003645 11 133 0.0 0.0 0.00 0.97 0.97 99 1011.4
20260510003140 11 133 0.0 0.0 0.00 0.97 0.97 99 1011.3
20260510002640 11 138 0.0 0.0 0.00 0.97 0.97 99 1011.4
20260510002137 11 138 0.0 0.0 0.00 0.97 0.97 99 1011.6
20260510001634 11 135 0.0 0.0 0.00 0.97 0.97 99 1011.6
20260510001133 11 131 0.0 0.0 0.00 0.97 0.97 99 1011.4
20260510000633 11 141 0.0 0.0 0.00 0.97 0.97 99 1011.5
20260510000131 11 160 0.0 0.0 0.00 0.97 0.97 99 1011.4
20260509235627 11 160 0.0 0.0 0.00 0.97 0.97 99 1011.4
20260509235124 11 160 0.0 0.0 0.00 0.97 0.97 99 1011.5
20260509234620 11 160 0.0 0.0 0.00 0.97 0.97 99 1011.3
20260509234118 12 137 0.0 0.0 0.00 0.97 0.97 99 1011.3
20260509233615 11 134 0.0 0.0 0.00 0.97 0.97 99 1011.4
20260509233112 11 139 0.0 0.0 0.00 0.97 0.97 99 1011.1
20260509232608 11 135 0.0 0.0 0.00 0.97 0.97 99 1011.2
20260509232106 11 138 0.0 0.0 0.00 0.97 0.97 99 1010.9
20260509231602 11 132 0.0 0.0 0.00 0.97 0.97 99 1011.1
20260509231100 11 146 0.0 1.6 0.00 0.97 0.97 99 1011.3
20260509230556 12 140 0.0 1.6 0.00 0.97 0.97 99 1011.3
20260509230054 11 132 0.0 0.0 0.00 0.97 0.97 99 1011.1
20260509225549 12 137 0.0 0.0 0.00 0.97 0.97 99 1011.2
20260509225044 12 123 1.6 1.6 0.00 0.97 0.97 99 1011.2
20260509224540 12 132 0.0 0.0 0.00 0.97 0.97 99 1011.0
20260509224037 12 131 0.0 0.0 0.00 0.97 0.97 99 1011.5
20260509223534 12 138 0.0 0.0 0.00 0.97 0.97 99 1011.2
20260509223032 12 119 0.0 1.6 0.00 0.97 0.97 99 1011.5
20260509222528 12 118 0.0 0.0 0.00 0.97 0.97 99 1011.6
20260509222023 12 133 0.0 0.0 0.00 0.97 0.97 99 1011.4
20260509221520 12 134 0.0 0.0 0.00 0.97 0.97 99 1011.7
20260509221016 11 129 0.0 0.0 0.00 0.97 0.97 99 1011.5
20260509220512 12 135 0.0 0.0 0.00 0.97 0.97 99 1011.4
20260509220008 12 102 0.0 0.0 0.00 0.97 0.97 99 1011.5
20260509215504 12 136 0.0 0.0 0.00 0.97 0.97 99 1011.6
20260509215001 12 145 0.0 0.0 0.00 0.97 0.97 99 1011.3
20260509214459 12 139 0.0 0.0 0.00 0.97 0.97 99 1011.6
20260509213955 12 134 0.0 0.0 0.00 0.97 0.97 99 1011.6
20260509213451 12 135 0.0 0.0 0.00 0.97 0.97 99 1011.3
20260509212948 11 131 0.0 0.0 0.00 0.97 0.97 99 1011.3
20260509212445 11 126 1.6 1.6 0.43 0.97 0.97 99 1011.5
20260509211941 11 135 0.0 0.0 0.61 0.97 0.97 99 1011.7
20260509211437 11 110 0.0 0.0 0.48 0.89 0.89 99 1011.6
20260509210934 11 128 0.0 0.0 0.61 0.86 0.86 99 1011.7
20260509210431 11 130 0.0 0.0 0.48 0.81 0.81 99 1011.6
20260509205926 11 135 0.0 0.0 0.48 0.79 0.79 99 1011.5
20260509205421 11 138 0.0 0.0 0.13 0.74 0.74 99 1011.5
20260509204917 11 133 0.0 0.0 0.30 0.71 0.71 99 1011.4
20260509204414 11 136 0.0 0.0 0.30 0.71 0.71 98 1011.2
20260509203911 11 139 0.0 0.0 0.18 0.66 0.66 98 1011.4
20260509203406 11 134 0.0 0.0 0.48 0.66 0.66 98 1011.6
20260509202904 11 143 0.0 0.0 0.71 0.64 0.64 98 1011.4
20260509202400 11 144 0.0 0.0 0.43 0.58 0.58 98 1011.6
20260509201855 11 158 0.0 1.6 0.18 0.51 0.51 98 1011.7
20260509201350 12 137 0.0 0.0 0.18 0.48 0.48 98 1011.6
20260509200848 12 134 0.0 0.0 0.18 0.48 0.48 98 1011.8
20260509200342 12 139 0.0 0.0 0.13 0.46 0.46 98 1011.8
20260509195839 12 138 0.0 0.0 0.30 0.46 0.46 97 1011.9
20260509195334 12 133 0.0 0.0 0.18 0.43 0.43 97 1012.1
20260509194833 12 138 0.0 0.0 0.30 0.41 0.41 97 1012.0
20260509194330 12 127 0.0 0.0 0.61 0.41 0.41 97 1012.0
20260509193826 12 143 0.0 0.0 0.43 0.36 0.36 96 1011.8
20260509193321 12 138 0.0 0.0 0.43 0.30 0.30 96 1012.2
20260509192817 12 122 0.0 0.0 0.61 0.28 0.28 96 1012.1
20260509192314 12 141 0.0 1.6 0.48 0.23 0.23 95 1012.1
20260509191809 12 152 0.0 1.6 0.18 0.18 0.18 94 1012.2
20260509191305 12 144 0.0 0.0 0.18 0.15 0.15 94 1012.0
20260509190801 12 138 0.0 0.0 0.30 0.15 0.15 93 1012.1
20260509190258 12 146 0.0 0.0 0.13 0.13 0.13 93 1011.9
20260509185755 12 145 0.0 0.0 0.00 0.10 0.10 93 1012.2
20260509185251 12 138 0.0 0.0 0.00 0.10 0.10 93 1012.3
20260509184749 12 167 1.6 1.6 0.00 0.10 0.10 93 1011.9
20260509184247 12 132 0.0 0.0 0.18 0.10 0.10 93 1011.8
20260509183743 12 135 0.0 1.6 0.18 0.10 0.10 92 1011.8
20260509183238 12 149 1.6 1.6 0.00 0.08 0.08 92 1011.7
20260509182734 12 138 0.0 0.0 0.13 0.08 0.08 91 1012.1
20260509182232 13 161 0.0 0.0 0.30 0.08 0.08 90 1012.5
20260509181729 13 132 0.0 0.0 0.18 0.05 0.05 88 1012.4
20260509181226 13 144 1.6 1.6 0.13 0.03 0.03 86 1012.6
20260509180723 14 150 0.0 0.0 0.13 0.03 0.03 84 1012.7
20260509180220 14 144 1.6 1.6 0.00 0.00 0.00 82 1012.7
20260509175716 15 144 0.0 0.0 0.00 0.00 0.00 80 1012.6
20260509175212 15 126 0.0 0.0 0.00 0.00 0.00 79 1012.8
20260509174708 15 153 0.0 1.6 0.00 0.00 0.00 79 1012.6
20260509174203 15 138 0.0 0.0 0.00 0.00 0.00 77 1012.5
20260509173700 15 155 0.0 1.6 0.00 0.00 0.00 76 1012.4
20260509173155 16 147 0.0 1.6 0.00 0.00 0.00 74 1012.3
20260509172652 16 137 0.0 1.6 0.00 0.00 0.00 72 1012.2
20260509172148 16 143 1.6 1.6 0.00 0.00 0.00 69 1012.1
20260509171643 17 118 0.0 1.6 0.00 0.00 0.00 69 1012.0
20260509171140 16 149 1.6 1.6 0.00 0.00 0.00 70 1012.1
20260509170637 15 140 0.0 0.0 0.00 0.00 0.00 71 1012.1
20260509170133 15 138 1.6 1.6 0.00 0.00 0.00 72 1012.2
20260509165631 16 156 0.0 1.6 0.00 0.00 0.00 71 1012.2
20260509165127 16 137 0.0 0.0 0.00 0.00 0.00 72 1012.2
20260509164623 16 148 0.0 0.0 0.00 0.00 0.00 71 1012.1
20260509164119 16 141 0.0 0.0 0.00 0.00 0.00 71 1012.3
20260509163617 15 141 0.0 0.0 0.00 0.00 0.00 71 1012.4
20260509163112 15 162 1.6 1.6 0.00 0.00 0.00 71 1012.4
20260509162610 15 133 0.0 0.0 0.00 0.00 0.00 71 1012.6
20260509162106 15 135 0.0 0.0 0.00 0.00 0.00 72 1012.5
20260509161603 16 135 1.6 1.6 0.00 0.00 0.00 70 1012.7
20260509161102 16 161 1.6 1.6 0.00 0.00 0.00 71 1012.4
20260509160559 16 149 0.0 0.0 0.00 0.00 0.00 72 1012.5
20260509160054 15 139 0.0 0.0 0.00 0.00 0.00 74 1012.7
20260509155551 15 166 1.6 1.6 0.00 0.00 0.00 73 1012.6
20260509155047 15 160 1.6 1.6 0.00 0.00 0.00 73 1012.8
20260509154543 15 155 1.6 1.6 0.00 0.00 0.00 72 1012.6
20260509154041 16 224 1.6 1.6 0.00 0.00 0.00 71 1012.8
20260509153538 16 141 0.0 1.6 0.00 0.00 0.00 73 1013.0
20260509153035 16 152 1.6 3.2 0.00 0.00 0.00 72 1013.1
20260509152530 16 181 3.2 3.2 0.00 0.00 0.00 71 1012.9
20260509152028 16 154 0.0 1.6 0.00 0.00 0.00 73 1012.7
20260509151524 16 148 1.6 1.6 0.00 0.00 0.00 73 1012.9
20260509151022 15 173 1.6 1.6 0.00 0.00 0.00 75 1013.0
20260509150519 15 145 1.6 1.6 0.00 0.00 0.00 77 1013.0
20260509150018 15 163 0.0 1.6 0.00 0.00 0.00 78 1013.2
20260509145513 15 193 1.6 1.6 0.00 0.00 0.00 78 1013.0
20260509145008 15 143 1.6 1.6 0.00 0.00 0.00 78 1013.1
20260509144505 15 136 0.0 0.0 0.00 0.00 0.00 77 1012.9
20260509144002 15 140 1.6 1.6 0.00 0.00 0.00 77 1013.2
20260509143459 15 109 1.6 1.6 0.00 0.00 0.00 77 1012.9
20260509142956 15 143 1.6 1.6 0.00 0.00 0.00 76 1013.0
20260509142452 16 154 0.0 0.0 0.00 0.00 0.00 75 1012.8
20260509141948 15 140 0.0 0.0 0.00 0.00 0.00 75 1012.8
20260509141444 15 173 1.6 1.6 0.00 0.00 0.00 76 1013.0
20260509140941 15 172 1.6 1.6 0.00 0.00 0.00 77 1012.9
20260509140437 15 198 0.0 1.6 0.00 0.00 0.00 79 1012.9
20260509135936 13 102 0.0 0.0 0.00 0.00 0.00 80 1012.9
20260509135433 13 130 0.0 1.6 0.00 0.00 0.00 81 1012.9
20260509134930 13 154 0.0 0.0 0.00 0.00 0.00 82 1013.2
20260509134428 12 135 0.0 0.0 0.00 0.00 0.00 83 1012.9
20260509133925 12 146 0.0 0.0 0.00 0.00 0.00 83 1013.2
20260509133421 12 141 0.0 1.6 0.00 0.00 0.00 84 1013.2
20260509132920 12 142 0.0 0.0 0.00 0.00 0.00 84 1012.9
20260509132418 12 114 0.0 0.0 0.00 0.00 0.00 84 1012.9
20260509131914 12 116 0.0 0.0 0.00 0.00 0.00 84 1012.9
20260509131412 12 121 0.0 0.0 0.00 0.00 0.00 85 1013.4